Regional Weather Roundup
Issued by NWS Mobile, AL

Home | Current Version | Previous Version | Text Only | Print | Product List | Glossary Off
Versions: 1 2 3 4 5 6 7 8 9 10 11 12 13 14 15 16 17 18 19 20 21 22 23 24 25 26 27 28 29 30 31 32 33 34 35 36 37 38 39 40 41 42 43 44 45 46 47 48 49 50

000
ASUS44 KMOB 290110
RWRMOB
REGIONAL WEATHER ROUNDUP
NATIONAL WEATHER SERVICE MOBILE AL
700 PM CST FRI NOV 28 2014

NOTE: "FAIR" INDICATES FEW OR NO CLOUDS BELOW 12,000 FEET WITH NO
      SIGNIFICANT WEATHER AND/OR OBSTRUCTIONS TO VISIBILITY.

  * THESE STATIONS ARE PART OF THE UNIVERSITY OF SOUTH ALABAMA
    MESONET AND ARE NOT UNDER NWS OR FAA QUALITY CONTROL.

ALZ061>064-290200-
COASTAL ALABAMA

CITY           SKY/WX    TMP DP  RH WIND       PRES   REMARKS
MOBILE REG APT CLEAR     45  33  63 S3        30.31R
BROOKLEY FIELD CLEAR     47  38  71 SW5       30.33R
USA CAMPUS*      N/A     45  36  70 CALM      30.32S
DOG RIVER*     NOT AVBL


CITY           SKY/WX    TMP DP  RH WIND       PRES   REMARKS
MOUNT VERNON*    N/A     36  34  93 CALM      30.31S
SARALAND*      NOT AVBL
BAY MINETTE*   NOT AVBL
LOXLEY*          N/A     45  36  70 S2        30.31R
ROBERTSDALE*     N/A     46  37  71 CALM      30.31R
FAIRHOPE*        N/A     45  37  76 S2        30.30S
ELBERTA*         N/A     41  39  93 CALM      30.30S
FOLEY*           N/A     39  34  81 CALM      30.28S
GRAND BAY*       N/A     41  34  75 CALM      30.29S
DAUPHIN ISLND* NOT AVBL
BON SCOUR NWR* NOT AVBL
GULF SHORES    CLEAR     41  38  89 CALM      30.31S

$$

ALZ051>060-290200-
INTERIOR SOUTHWEST AND SOUTH CENTRAL ALABAMA

CITY           SKY/WX    TMP DP  RH WIND       PRES   REMARKS
GREENVILLE     CLEAR     40  31  70 CALM      30.29S
EVERGREEN      CLEAR     41  34  76 CALM      30.31R
CASTLEBERRY*   NOT AVBL
ATMORE*          N/A     43  32  65 CALM      30.31S
DIXIE*           N/A     45  32  61 CALM      30.28R
ANDALUSIA/OPP  CLEAR     43  33  68 SE3       30.31R
ANDALUSIA*       N/A     43  32  65 CALM      30.29S
FLORALA APT    CLEAR     39  33  79 CALM      30.33R
FLORALA*         N/A     39  34  81 CALM      30.28S

$$

FLZ001>006-290200-
WESTERN FLORIDA PANHANDLE

CITY           SKY/WX    TMP DP  RH WIND       PRES   REMARKS
PENSACOLA      CLEAR     47  35  63 CALM      30.31R
NAS PENSACOLA  CLEAR     40  36  86 CALM      30.31R
MILTON         CLEAR     38  34  85 CALM      30.31S
WHTNG S FIELD  CLEAR     43  35  73 CALM      30.31S


CITY           SKY/WX    TMP DP  RH WIND       PRES   REMARKS
WALNUT HILL*   NOT AVBL
JAY*             N/A     45  34  65 CALM      30.31R
DUKE FIELD     CLEAR     40  33  76 CALM      30.31R
CRESTVIEW      CLEAR     38  34  85 CALM      30.33R
VALPARAISO     CLEAR     43  38  80 W2        30.31S
DESTIN         CLEAR     44  39  82 CALM      30.31S

$$

MSZ076-079-290200-
INTERIOR SOUTHEAST MISSISSIPPI

CITY           SKY/WX    TMP DP  RH WIND       PRES   REMARKS
LEAKESVILLE*     N/A    N/A N/A N/A CALM      30.29S
AGRICOLA*      NOT AVBL

$$

MARINE OBSERVATIONS

STATION/POSITION TIME  TEMP    WIND        PRES    WAVE
                       AIR SEA DIR/SP/G            HT/PER
                 (UTC) (F)     (DEG/KT/KT) (MB)    (FT/S)
PASCAGOULA       0100   55     160/  8/  9 1026.0S
PETIT BOIS ISLND 0100   55     140/  6/  8 1026.5F
GRAND BAY        0000   54     160/  7     1027.0S
KATRINA CUT      0000   54     160/  6     1026.8S
CEDAR POINT      0000   51     170/  7     1026.1S
E DAUPHIN ISLAND 2257   52     170/  4/  5 1026.5R
MIDDLE BAY LIGHT 0000   53     160/  8     1026.1S
USCG MOBILE BAY  0100   49 57  240/  2/  4 1025.2S
STATE DOCKS      0100   53 58              1025.9S
MEAHER PARK      0000   51     120/  4     1026.8R
WEEKS BAY        0000   46                   N/A
FORT MORGAN      0100   54     170/  6/  8 1025.9S
12 S ORANGE BCH  0100   57 65  120/  6/  8 1026.0F   1/ 5
PENSACOLA BAY    0100   52 59  320/  2/  3 1026.6S
64 S DAUPHIN ISL 0002   59 70  100/  8/ 12 1027.0R   2/ 5
67 S FORT MORGAN 0000   59      90/  8     1026.1S

$$

SELECTED LOCATIONS ACROSS THE REGION

CITY           SKY/WX    TMP DP  RH WIND       PRES   REMARKS
NEW ORLEANS    CLEAR     52  43  71 SE6       30.30S
GULFPORT       CLEAR     43  37  79 CALM      30.30F
PASCAGOULA AP  CLEAR     39  35  86 CALM      30.31S
PASCAGOULA*      N/A    N/A N/A N/A CALM      30.31S
HATTIESBURG    CLEAR     44  36  73 CALM      30.29S
LAUREL         CLEAR     39  32  75 S3        30.28S
MERIDIAN       CLEAR     39  31  72 CALM      30.27S
JACKSON        CLEAR     45  30  55 S7        30.23F
MONTGOMERY     CLEAR     43  19  38 CALM      30.31S
TROY           CLEAR     39  28  64 CALM      30.31S
KINSTON*       NOT AVBL
GENEVA*          N/A     39  36  87 CALM      30.33S
ASHFORD*         N/A     43  32  65 CALM      30.29S
DOTHAN         CLEAR     41  33  73 CALM      30.34S
PANAMA CITY    CLEAR     42  38  85 CALM      30.31R

$$




USA.gov is the U.S. government's official web portal to all federal, state and local government web resources and services.